DD6UBW Weather Reports


Display with metric or nautical units.
time (UTC)temp
F
wind
direction
speed
MPH
gust
MPH
rain 1hr
in
rain 24hr
in
rain mn
in
humidity
%
barometer
mb
20260505040001 57 80 1.0 0.0 0.00 0.00 0.00 78 1009.6
20260505033001 57 0 0.0 0.0 0.00 0.00 0.00 78 1009.6
20260505030001 56 80 0.0 0.0 0.00 0.00 0.00 79 1009.6
20260505023000 56 240 0.0 0.0 0.00 0.00 0.00 79 1009.6
20260505020000 56 45 0.0 0.0 0.00 0.00 0.00 78 1009.6
20260505013001 57 45 1.0 0.0 0.00 0.00 0.00 77 1009.6
20260505010000 57 85 0.0 0.0 0.00 0.00 0.00 77 1010.6
20260505003001 56 120 2.0 0.0 0.00 0.00 0.00 78 1010.6
20260505000002 56 60 0.0 0.0 0.00 0.00 0.00 78 1010.6
20260504233000 57 25 0.0 0.0 0.00 0.00 0.00 77 1010.6
20260504230002 58 20 1.0 0.0 0.00 0.00 0.00 76 1010.6
20260504223001 58 100 4.0 0.0 0.00 0.00 0.00 75 1011.6
20260504220001 59 65 2.0 0.0 0.00 0.00 0.00 74 1011.6
20260504213000 61 55 2.0 0.0 0.00 0.00 0.00 71 1011.6
20260504210001 62 70 2.0 0.0 0.00 0.00 0.00 70 1011.6
20260504203001 61 115 1.0 0.0 0.00 0.00 0.00 73 1011.6
20260504200001 61 95 0.0 0.0 0.00 0.00 0.00 71 1011.6
20260504193001 62 110 0.0 0.0 0.00 0.00 0.00 69 1011.6
20260504190000 64 90 0.0 0.0 0.00 0.00 0.00 65 1011.6
20260504183001 67 75 0.0 0.0 0.00 0.00 0.00 61 1010.6
20260504180001 69 35 0.0 0.0 0.00 0.00 0.00 58 1010.6
20260504173000 70 210 6.0 0.0 0.00 0.00 0.00 56 1010.6